Location: Newark
(47.5833°N, 8.1500°E)
Time: 23:38:20
(UTC+00:00)

Vanguard 1 - Pass Details

Date: 02 November 2020
Orbit: 650 x 3833 km, 34.2° (Epoch: 29 November)

Event Time Altitude Azimuth Distance (km) Brightness Sun altitude
Rises 10:58:37 0° 231° (SW) 6,834 14.8 27.4°
Reaches altitude 10° 11:02:55 10° 226° (SW) 6,142 14.8 27.4°
Maximum altitude 11:22:41 49° 159° (SSE) 4,483 14.7 27.4°
Drops below altitude 10° 11:43:20 10° 94° (E) 6,412 14.2 27.0°
Sets 11:47:54 0° 90° (E) 7,142 14.4 26.9°
